THORAD AGENA D DEB, 42494

Orbit data source: Space-Track

THORAD AGENA D DEB, 42494 is space debris in SSO originally from a launch on Wed, 08 Apr 1970 UTC launched from the Air Force Western Test Range (AFWTR). Debris objects in space refer to the collection of defunct objects orbiting the Earth. Examples of debris include non-operational satellites, rocket bodies, and fragments generated from explosions, collisions, or faulty payload assembly.

Loading next visibility...
Identifier
42494, 1970-025QY
Orbit
SSO
Country
Flag of USUS
Related business
Manufacturer
Unknown
Mission
Spacecraft
Bus & Motor
Unknown
Mass
Unknown
Launch date (UTC)
1970-04-08 (56 years ago)
Launch vehicle
Unknown
Launch site
Air Force Western Test Range (AFWTR)
Object type
Payload
Rocket body
Debris
Shape & HBR
Unknown shape, 0.1 m
Radar Cross Section
Small (<0.1 m²)

Expand to show TLE details & history
Last TLE update: 2 weeks ago

TLE from 2 weeks ago
0 THORAD AGENA D DEB
1 42494U 70025QY  26224.45814400  .00000116  00000-0  20707-3 0  9996
2 42494  99.6950 304.4216 0098357  25.1789 335.4100 13.60325630619109
Epoch: 2026-08-12T10:59Z
TLE epoch observation values (Epoch: 2026-08-12T10:59:43.641Z)
Latitude
-0.00006°
Longitude
178.57798°
Altitude
971.126 km
Speed
7.399 km/s
True Right ascension
20h 17m 41s
True Declination
0° 00' 00"
Sunlit
Object was in full shadow at epoch
Visualization orbit readout
Latitude
Unknown
Longitude
Unknown
Altitude
Unknown
Speed
Unknown
Apparent Right ascension
Unknown
Apparent Declination
Unknown
Sunlit
N/A
Visualization observer readout
Local Sidereal Time
09:35:36
Azimuth
Unknown
Elevation
Unknown
Doppler factor
Unknown
Orbital elements
Apogee altitude
1,104.678 km
Perigee altitude
958.914 km
Semi-major axis
7,409.933 km
Eccentricity
0.00984
Inclination
99.695°
RAAN
304.4216°
Arg. of periapsis
25.1789°
True anomaly
334.9357°
Mean anomaly
335.41°
Eccentric anomaly
335.17338°
Mean motion
3.40269 °/min
Orbital period
105.8 mins
BSTAR
0.00020707

Documentation

Showing up to 5 results
|